METEOR 2-5 DEB, 39608

Orbit data source: Space-Track

METEOR 2-5 DEB, 39608 is space debris in LEO originally from a launch on Wed, 31 Oct 1979 UTC launched from the Plesetsk Missile And Space Complex (PKMTR). Debris objects in space refer to the collection of defunct objects orbiting the Earth. Examples of debris include non-operational satellites, rocket bodies, and fragments generated from explosions, collisions, or faulty payload assembly.

Loading next visibility...
Identifier
39608, 1979-095CK
Orbit
LEO
Country
Flag of CISCIS
Related business
Manufacturer
Unknown
Mission
Spacecraft
Bus & Motor
Unknown
Mass
Unknown
Launch date (UTC)
1979-10-31 (46 years ago)
Launch vehicle
Unknown
Launch site
Plesetsk Missile And Space Complex (PKMTR)
Object type
Payload
Rocket body
Debris
Shape & HBR
Unknown shape, 0.1 m
Radar Cross Section
Small (<0.1 m²)

Expand to show TLE details & history
Last TLE update: 1 day ago

TLE from 1 day ago
0 METEOR 2-5 DEB
1 39608U 79095CK  25354.20371238  .00004219  00000-0  13378-2 0  9991
2 39608  81.1998 309.2695 0012137 193.0285 167.0590 14.39884500576895
Epoch: 2025-12-20T04:53Z
TLE epoch observation values (Epoch: 2025-12-20T04:53:20.749Z)
Latitude
-0.00009°
Longitude
146.89915°
Altitude
770.263 km
Speed
7.465 km/s
True Right ascension
20h 37m 04s
True Declination
0° 00' 00"
Sunlit
Object was in daylight at epoch
Visualization orbit readout
Latitude
Unknown
Longitude
Unknown
Altitude
Unknown
Speed
Unknown
Apparent Right ascension
Unknown
Apparent Declination
Unknown
Sunlit
N/A
Visualization observer readout
Local Sidereal Time
12:22:00
Azimuth
Unknown
Elevation
Unknown
Doppler factor
Unknown
Orbital elements
Apogee altitude
764.675 km
Perigee altitude
747.358 km
Semi-major axis
7,134.154 km
Eccentricity
0.00121
Inclination
81.1998°
RAAN
309.2695°
Arg. of periapsis
193.0285°
True anomaly
167.0901°
Mean anomaly
167.059°
Eccentric anomaly
167.07455°
Mean motion
3.60188 °/min
Orbital period
99.95 mins
BSTAR
0.0013378
Loading maneuver chart data...
Computing Atmospheric mass density...

Documentation

Showing up to 5 results
|